Regional Weather Roundup
Issued by NWS Cleveland, OH

Home | Current Version | Previous Version | Text Only | Print | Product List | Glossary On
Versions: 1 2 3 4 5 6 7 8 9 10 11 12 13 14 15 16 17 18 19 20 21 22 23 24 25 26 27 28 29 30 31 32 33 34 35 36 37 38 39 40 41 42 43 44 45 46 47 48 49 50
000
ASUS41 KCLE 080010
RWRCLE
OHIO REGIONAL WEATHER ROUNDUP
NATIONAL WEATHER SERVICE CLEVELAND, OH
800 PM EDT TUE JUL 07 2015

NOTE: "FAIR" INDICATES FEW OR NO CLOUDS BELOW 12,000 FEET WITH NO
SIGNIFICANT WEATHER AND/OR OBSTRUCTIONS TO VISIBILITY.

OHZ001>008-015>018-024>027-034-035-043-044-080100-
   NORTHWEST OHIO

CITY           SKY/WX    TMP DP  RH WIND       PRES   REMARKS
DEFIANCE       CLOUDY    69  61  75 N7        29.97R
FINDLAY        LGT RAIN  68  65  90 N9        29.95R FOG
TOLEDO EXPRESS CLOUDY    66  62  87 N12       29.96R
TOLEDO EXEC    CLOUDY    68  61  78 N8        29.97R
LIMA           CLOUDY    68  66  93 N8        29.95R
$$

OHZ009>014-019>023-028>033-038-089-080100-
   NORTHEAST OHIO

CITY           SKY/WX    TMP DP  RH WIND       PRES   REMARKS
CLE-HOPKINS    CLOUDY    71  69  93 N13G18    29.96R
CLE-LAKEFRONT  CLOUDY    70  66  87 N17       29.92R
CUY CO. ARPT   CLOUDY    73  72  94 W7        29.93S
LORAIN-ELYRIA  CLOUDY    68  50  53 N12       29.95R
ASHTABULA      CLOUDY    71  70  96 SW5       29.93S
AKRON-CANTON   LGT RAIN  71  68  90 SW3       29.95S
WOOSTER        LGT RAIN  71  69  93 S3        29.95S
MANSFIELD      CLOUDY    71  70  96 CALM      29.95S
YOUNGSTOWN     TSTM      69  67  93 SW10      29.95R FOG
$$

OHZ042-051>053-060>062-070>072-077>081-080100-
  SOUTHWEST OHIO

CITY           SKY/WX    TMP DP  RH WIND       PRES   REMARKS
CINC-COVINGTON LGT RAIN  73  70  90 SW10G17   29.97S FOG
CINC-LUNKEN    LGT RAIN  74  70  87 SW12      29.96S FOG
HAMILTON       LGT RAIN  73  70  90 SW9G20    29.95F FOG
DAYTON         RAIN      73  70  90 SW9       29.95F FOG
WRIGHT-PAT AFB LGT RAIN  72  71  98 SW7       29.94F
DAYTON GENERAL CLOUDY    73  70  90 S12       29.94F
WILMINGTON     LGT RAIN  73  68  84 SW13      29.96R
$$

OHZ036-037-039>041-045>050-054>059-063>069-073>076-082>088-080100-
  CENTRAL AND SOUTHEAST OHIO

CITY           SKY/WX    TMP DP  RH WIND       PRES   REMARKS
COLUMBUS       RAIN      73  71  93 SW13      29.93S
OSU AIRPORT    LGT RAIN  73  71  93 W8        29.94R
BOLTON FIELD   LGT RAIN  72  71  97 MISG      29.95F
RICKENBACK AFB CLOUDY    73  72  96 SW5       29.94S
NEWARK         HVY RAIN  75  72  90 SW3       29.94S FOG
MARION         CLOUDY    73  70  90 CALM      29.94R
LANCASTER      LGT RAIN  76  70  82 SW9       29.96R
ZANESVILLE     NOT AVBL
NEW PHILLY     CLOUDY    71  70  96 CALM      29.96S
$$



USA.gov is the U.S. government's official web portal to all federal, state and local government web resources and services.